When you browse on this site, cookies collect data to enhance your experience and personalize the content and advertising you see.
Visit our Privacy Policy to learn more. By continuing to use the site, you agree to this use of cookies and data.
  • în România
  • Lista ţărilor
  • Pe 7 zile
  • Temperatura apei
  • Hartă satelitară
  • Meteo pe hartă
  • Widget-uri
  • user-avatar
    Intrare

    Meteo pe oră la Arnay-le-Duc

    Astăzi, 16 Februarie, Sâmbătă

    Timp Temperatura Precipitaţii Vânt Presiune Umiditate
    00:00 +5°C° 0 mm 1 m/s 735 mmHg 78%
    01:00 +5°C° 0 mm 1 m/s 735 mmHg 78%
    02:00 +5°C° 0 mm 1 m/s 735 mmHg 78%
    03:00 +5°C° 0 mm 1 m/s 735 mmHg 77%
    04:00 +4°C° 0 mm 1 m/s 735 mmHg 78%
    05:00 +4°C° 0 mm 1 m/s 735 mmHg 78%
    06:00 +4°C° 0 mm 1 m/s 735 mmHg 78%
    07:00 +5°C° 0 mm 1 m/s 735 mmHg 73%
    08:00 +7°C° 0 mm 1 m/s 735 mmHg 68%
    09:00 +8°C° 0 mm 1 m/s 736 mmHg 63%
    10:00 +10°C° 0 mm 1 m/s 735 mmHg 57%
    11:00 +12°C° 0 mm 2 m/s 735 mmHg 50%
    12:00 +14°C° 0 mm 2 m/s 735 mmHg 43%
    13:00 +14°C° 0 mm 2 m/s 735 mmHg 45%
    14:00 +14°C° 0 mm 2 m/s 735 mmHg 47%
    15:00 +14°C° 0 mm 2 m/s 734 mmHg 48%
    16:00 +12°C° 0 mm 1 m/s 734 mmHg 55%
    17:00 +10°C° 0 mm 1 m/s 734 mmHg 63%
    18:00 +8°C° 0 mm 1 m/s 734 mmHg 70%
    19:00 +7°C° 0 mm 1 m/s 734 mmHg 72%
    20:00 +7°C° 0 mm 1 m/s 734 mmHg 73%
    21:00 +6°C° 0 mm 1 m/s 734 mmHg 74%
    22:00 +6°C° 0 mm 1 m/s 734 mmHg 75%
    23:00 +6°C° 0 mm 1 m/s 734 mmHg 76%

    Mâine, 17 Februarie, Duminică

    Timp Temperatura Precipitaţii Vânt Presiune Umiditate
    00:00 +5°C° 0 mm 1 m/s 733 mmHg 77%
    01:00 +5°C° 0 mm 1 m/s 733 mmHg 77%
    02:00 +3°C° 0 mm 2 m/s 733 mmHg 77%
    03:00 +3°C° 0 mm 2 m/s 732 mmHg 77%
    04:00 +3°C° 0 mm 2 m/s 732 mmHg 77%
    05:00 +2°C° 0 mm 2 m/s 732 mmHg 77%
    06:00 +2°C° 0 mm 2 m/s 732 mmHg 77%
    07:00 +4°C° 0 mm 2 m/s 732 mmHg 72%
    08:00 +5°C° 0 mm 2 m/s 733 mmHg 67%
    09:00 +7°C° 0 mm 2 m/s 733 mmHg 63%
    10:00 +9°C° 0 mm 3 m/s 733 mmHg 58%
    11:00 +11°C° 0 mm 3 m/s 732 mmHg 54%
    12:00 +13°C° 0 mm 3 m/s 732 mmHg 50%
    13:00 +13°C° 0 mm 3 m/s 732 mmHg 52%
    14:00 +13°C° 0 mm 3 m/s 731 mmHg 53%
    15:00 +13°C° 0 mm 3 m/s 731 mmHg 55%
    16:00 +12°C° 0 mm 2 m/s 731 mmHg 62%
    17:00 +9°C° 0 mm 2 m/s 731 mmHg 70%
    18:00 +7°C° 0 mm 2 m/s 731 mmHg 77%
    19:00 +6°C° 0 mm 2 m/s 731 mmHg 78%
    20:00 +6°C° 0 mm 2 m/s 731 mmHg 79%
    21:00 +5°C° 0 mm 2 m/s 731 mmHg 80%
    22:00 +5°C° 0 mm 2 m/s 731 mmHg 83%
    23:00 +4°C° 0 mm 2 m/s 731 mmHg 85%

    Poimâine, 18 Februarie, Luni

    Timp Temperatura Precipitaţii Vânt Presiune Umiditate
    00:00 +4°C° 0 mm 2 m/s 731 mmHg 88%
    01:00 +3°C° 0 mm 2 m/s 731 mmHg 89%
    02:00 +3°C° 0 mm 2 m/s 730 mmHg 90%
    03:00 +2°C° 0 mm 2 m/s 730 mmHg 90%
    04:00 +2°C° 0 mm 2 m/s 730 mmHg 91%
    05:00 +2°C° 0 mm 2 m/s 730 mmHg 91%
    06:00 +1°C° 0 mm 2 m/s 730 mmHg 92%
    07:00 +3°C° 0 mm 2 m/s 730 mmHg 87%
    08:00 +4°C° 0 mm 2 m/s 730 mmHg 82%
    09:00 +6°C° 0 mm 2 m/s 730 mmHg 77%
    10:00 +8°C° 0 mm 3 m/s 730 mmHg 72%
    11:00 +9°C° 0 mm 3 m/s 730 mmHg 66%
    12:00 +11°C° 0 mm 3 m/s 730 mmHg 61%
    13:00 +11°C° 0 mm 3 m/s 729 mmHg 60%
    14:00 +12°C° 0 mm 3 m/s 729 mmHg 60%
    15:00 +12°C° 0 mm 3 m/s 728 mmHg 59%
    16:00 +10°C° 0 mm 2 m/s 728 mmHg 66%
    17:00 +8°C° 0 mm 2 m/s 728 mmHg 73%
    18:00 +7°C° 0 mm 2 m/s 728 mmHg 80%
    19:00 +6°C° 0 mm 2 m/s 729 mmHg 82%
    20:00 +5°C° 0 mm 2 m/s 729 mmHg 84%
    21:00 +5°C° 0 mm 2 m/s 729 mmHg 86%
    22:00 +5°C° 0 mm 2 m/s 729 mmHg 88%
    23:00 +4°C° 0 mm 2 m/s 729 mmHg 89%

    19 Februarie, Marţi

    Timp Temperatura Precipitaţii Vânt Presiune Umiditate
    00:00 +4°C° 0 mm 2 m/s 729 mmHg 90%
    01:00 +4°C° 0 mm 2 m/s 729 mmHg 91%
    02:00 +3°C° 0 mm 2 m/s 729 mmHg 92%
    03:00 +3°C° 0 mm 2 m/s 729 mmHg 93%
    04:00 +3°C° 0 mm 2 m/s 730 mmHg 91%
    05:00 +4°C° 0 mm 2 m/s 730 mmHg 89%
    06:00 +5°C° 0 mm 2 m/s 730 mmHg 87%
    07:00 +5°C° 0.1 mm 2 m/s 731 mmHg 86%
    08:00 +6°C° 0.1 mm 2 m/s 731 mmHg 84%
    09:00 +6°C° 0.1 mm 2 m/s 732 mmHg 83%
    10:00 +7°C° 0.2 mm 2 m/s 732 mmHg 82%
    11:00 +8°C° 0.2 mm 2 m/s 732 mmHg 80%
    12:00 +9°C° 0.2 mm 1 m/s 732 mmHg 79%
    13:00 +10°C° 0 mm 1 m/s 731 mmHg 78%
    14:00 +10°C° 0 mm 1 m/s 731 mmHg 77%
    15:00 +10°C° 0 mm 1 m/s 731 mmHg 76%
    16:00 +8°C° 0 mm 0 m/s 731 mmHg 80%
    17:00 +7°C° 0 mm 0 m/s 731 mmHg 84%
    18:00 +6°C° 0 mm 0 m/s 731 mmHg 89%
    19:00 +5°C° 0 mm 0 m/s 732 mmHg 90%
    20:00 +5°C° 0 mm 0 m/s 732 mmHg 91%
    21:00 +4°C° 0 mm 0 m/s 732 mmHg 93%
    22:00 +4°C° 0 mm 0 m/s 732 mmHg 93%
    23:00 +4°C° 0 mm 0 m/s 732 mmHg 94%

    20 Februarie, Miercuri

    Timp Temperatura Precipitaţii Vânt Presiune Umiditate
    00:00 +4°C° 0 mm 0 m/s 732 mmHg 95%
    01:00 +4°C° 0 mm 0 m/s 732 mmHg 95%
    02:00 +4°C° 0 mm 0 m/s 732 mmHg 95%
    03:00 +6°C° 0 mm 1 m/s 732 mmHg 95%
    04:00 +5°C° 0 mm 1 m/s 732 mmHg 95%
    05:00 +4°C° 0 mm 1 m/s 732 mmHg 96%
    06:00 +4°C° 0 mm 1 m/s 732 mmHg 96%
    07:00 +5°C° 0 mm 1 m/s 732 mmHg 92%
    08:00 +6°C° 0 mm 1 m/s 733 mmHg 87%
    09:00 +8°C° 0 mm 1 m/s 733 mmHg 82%
    10:00 +8°C° 0 mm 2 m/s 733 mmHg 76%
    11:00 +10°C° 0 mm 2 m/s 733 mmHg 70%
    12:00 +12°C° 0 mm 2 m/s 733 mmHg 64%
    13:00 +13°C° 0 mm 2 m/s 733 mmHg 63%
    14:00 +13°C° 0 mm 2 m/s 733 mmHg 62%
    15:00 +13°C° 0 mm 2 m/s 732 mmHg 60%
    16:00 +11°C° 0 mm 1 m/s 732 mmHg 68%
    17:00 +10°C° 0 mm 1 m/s 733 mmHg 76%
    18:00 +8°C° 0 mm 1 m/s 733 mmHg 84%
    19:00 +7°C° 0 mm 1 m/s 733 mmHg 85%
    20:00 +7°C° 0 mm 1 m/s 733 mmHg 86%
    21:00 +6°C° 0 mm 1 m/s 734 mmHg 87%
    22:00 +6°C° 0 mm 1 m/s 734 mmHg 87%
    23:00 +6°C° 0 mm 1 m/s 734 mmHg 87%

    21 Februarie, Joi

    Timp Temperatura Precipitaţii Vânt Presiune Umiditate
    00:00 +6°C° 0 mm 1 m/s 734 mmHg 88%
    01:00 +5°C° 0 mm 1 m/s 734 mmHg 88%
    02:00 +5°C° 0 mm 1 m/s 734 mmHg 89%
    03:00 +5°C° 0 mm 1 m/s 734 mmHg 89%
    04:00 +5°C° 0 mm 1 m/s 734 mmHg 89%
    05:00 +5°C° 0 mm 1 m/s 734 mmHg 89%
    06:00 +4°C° 0 mm 1 m/s 734 mmHg 90%
    07:00 +6°C° 0 mm 1 m/s 735 mmHg 84%
    08:00 +7°C° 0 mm 1 m/s 735 mmHg 79%
    09:00 +9°C° 0 mm 1 m/s 735 mmHg 74%
    10:00 +10°C° 0 mm 1 m/s 735 mmHg 69%
    11:00 +12°C° 0 mm 1 m/s 735 mmHg 64%
    12:00 +13°C° 0 mm 1 m/s 735 mmHg 59%
    13:00 +14°C° 0 mm 1 m/s 734 mmHg 58%
    14:00 +14°C° 0 mm 1 m/s 734 mmHg 58%
    15:00 +14°C° 0 mm 1 m/s 734 mmHg 57%
    16:00 +12°C° 0 mm 1 m/s 734 mmHg 65%
    17:00 +10°C° 0 mm 1 m/s 734 mmHg 73%
    18:00 +8°C° 0 mm 1 m/s 734 mmHg 81%
    19:00 +8°C° 0 mm 1 m/s 734 mmHg 82%
    20:00 +7°C° 0 mm 1 m/s 734 mmHg 83%
    21:00 +7°C° 0 mm 1 m/s 735 mmHg 83%
    22:00 +6°C° 0 mm 1 m/s 735 mmHg 84%
    23:00 +6°C° 0 mm 1 m/s 735 mmHg 84%
    Arată mai mult